Weather History for KPKD - October, 2012

Change the Weather History Date:

Thursday, October 25, 2012

  Actual Average Record
Temperature  
Mean Temperature 34 °F -  
Max Temperature 36 °F 51 °F 77 °F (1989)
Min Temperature 32 °F 31 °F 14 °F (1955)
Degree Days  
Heating Degree Days 31    
Moisture  
Dew Point 27 °F    
Average Humidity 78    
Maximum Humidity 96    
Minimum Humidity 64    
Precipitation  
Precipitation 0.11 in - - ()
Sea Level Pressure  
Sea Level Pressure 29.95 in    
Wind  
Wind Speed 13 mph (NW)    
Max Wind Speed 25 mph    
Max Gust Speed 31 mph    
Visibility 9 miles    
Events Rain , Snow    
Averages and records for this station are not official NWS values.
T = Trace of Precipitation, MM = Missing Value Source: NWS Daily Summary

Daily Weather History Graph

Daily Weather History Graph

Search for Another Location

Airport or City:

Trip Planner

Search our weather history database for the weather conditions in past years. The results will help you decide how hot, cold, wet, or windy it might be!

Date:

Astronomy

Oct. 25, 2012 Rise Set
Actual Time 7:53 AM CDT 6:14 PM CDT
Civil Twilight 7:21 AM CDT 6:45 PM CDT
Nautical Twilight 6:46 AM CDT 7:21 PM CDT
Astronomical Twilight 6:11 AM CDT 7:56 PM CDT
Moon 4:12 PM CDT (10/25) 3:37 AM CDT (10/25)
Length of Visible Light 11h 23m
Length of Day
10h 21m
Waxing Gibbous, 84% of the Moon is Illuminated
Oct 25
Waxing Gibbous
Oct 29
Full
Nov 6
Last Quarter
Nov 13
New
Nov 20
First Quarter

Hourly Weather History & Observations

Time (CDT) Temp. Windchill Dew Point Humidity Pressure Visibility Wind Dir Wind Speed Gust Speed Precip Events Conditions
12:04 AM 35.6 °F 29.2 °F 33.8 °F 93% 29.90 in 7.0 mi North 8.1 mph - 0.01 in Rain Light Rain
12:53 AM 36.0 °F 30.3 °F 34.0 °F 93% 29.94 in 6.0 mi NNW 6.9 mph - 0.04 in Rain Light Rain
1:50 AM 33.8 °F 25.8 °F 32.0 °F 93% 29.89 in 2.5 mi NNW 10.4 mph - 0.05 in Snow Light Snow
1:53 AM 33.1 °F 25.5 °F 32.0 °F 96% 29.93 in 2.0 mi NNW 9.2 mph - 0.06 in Snow Light Snow
2:17 AM 33.8 °F 25.3 °F 32.0 °F 93% 29.87 in 3.0 mi NNW 11.5 mph - 0.01 in Snow Light Snow
2:53 AM 34.0 °F 26.6 °F 32.0 °F 92% 29.92 in 7.0 mi NNW 9.2 mph - 0.01 in   Overcast
3:53 AM 34.0 °F 24.6 °F 32.0 °F 92% 29.93 in 8.0 mi NNW 13.8 mph - 0.00 in   Overcast
4:53 AM 34.0 °F 24.2 °F 32.0 °F 92% 29.92 in 9.0 mi NNW 15.0 mph 20.7 mph N/A   Overcast
5:17 AM 33.8 °F 24.3 °F 30.2 °F 87% 29.86 in 10.0 mi NNW 13.8 mph 19.6 mph N/A   Overcast
5:29 AM 32.0 °F 22.1 °F 28.4 °F 87% 29.87 in 10.0 mi NNW 13.8 mph 24.2 mph N/A   Overcast
5:53 AM 32.0 °F 21.6 °F 27.0 °F 82% 29.91 in 10.0 mi NNW 15.0 mph 20.7 mph N/A   Overcast
6:53 AM 32.0 °F 22.1 °F 27.0 °F 82% 29.91 in 10.0 mi NNW 13.8 mph 19.6 mph N/A   Overcast
7:53 AM 32.0 °F 24.8 °F 27.0 °F 82% 29.91 in 10.0 mi NNW 8.1 mph - N/A   Overcast
8:39 AM 32.0 °F 24.2 °F 26.6 °F 80% 29.89 in 10.0 mi NW 9.2 mph - N/A   Overcast
8:53 AM 32.0 °F 23.0 °F 26.6 °F 80% 29.88 in 10.0 mi NNW 11.5 mph - N/A   Overcast
9:53 AM 32.0 °F 21.6 °F 27.0 °F 82% 29.92 in 10.0 mi NNW 15.0 mph 20.7 mph N/A   Overcast
10:53 AM 33.1 °F 23.9 °F 27.0 °F 78% 29.94 in 10.0 mi NW 12.7 mph - N/A   Overcast
11:53 AM 35.1 °F 25.5 °F 27.0 °F 72% 29.93 in 10.0 mi NW 15.0 mph 23.0 mph N/A   Overcast
12:53 PM 35.1 °F 25.2 °F 26.1 °F 70% 29.93 in 10.0 mi NW 16.1 mph 25.3 mph N/A   Overcast
1:53 PM 35.1 °F 24.1 °F 26.1 °F 70% 29.94 in 10.0 mi NW 19.6 mph 25.3 mph N/A   Overcast
2:41 PM 35.6 °F 25.2 °F 24.8 °F 65% 29.90 in 10.0 mi WNW 18.4 mph 26.5 mph N/A   Overcast
2:53 PM 35.1 °F 24.1 °F 24.1 °F 64% 29.95 in 10.0 mi NW 19.6 mph 28.8 mph N/A   Overcast
3:53 PM 35.1 °F 24.8 °F 25.0 °F 67% 29.96 in 10.0 mi WNW 17.3 mph 26.5 mph N/A   Overcast
4:53 PM 35.1 °F 25.5 °F 24.1 °F 64% 29.98 in 10.0 mi WNW 15.0 mph - N/A   Overcast
5:53 PM 35.1 °F 25.5 °F 25.0 °F 67% 30.00 in 10.0 mi WNW 15.0 mph 26.5 mph N/A   Overcast
6:53 PM 35.1 °F 24.8 °F 24.1 °F 64% 30.03 in 10.0 mi WNW 17.3 mph 27.6 mph N/A   Overcast
7:53 PM 34.0 °F 23.4 °F 24.1 °F 67% 30.05 in 10.0 mi West 17.3 mph - N/A   Overcast
8:53 PM 34.0 °F 21.5 °F 24.1 °F 67% 30.06 in 10.0 mi West 24.2 mph 29.9 mph N/A   Overcast
9:53 PM 33.1 °F 22.6 °F 25.0 °F 72% 30.08 in 10.0 mi West 16.1 mph 26.5 mph N/A   Overcast
10:37 PM 33.8 °F 22.2 °F 24.8 °F 70% 30.03 in 10.0 mi West 20.7 mph 29.9 mph N/A   Overcast
10:53 PM 34.0 °F 21.3 °F 25.0 °F 70% 30.09 in 10.0 mi WNW 25.3 mph 31.1 mph N/A   Overcast
11:38 PM 33.8 °F 22.2 °F 24.8 °F 70% 30.04 in 10.0 mi WNW 20.7 mph 29.9 mph N/A   Overcast
11:53 PM 33.8 °F 23.2 °F 26.6 °F 75% 30.05 in 10.0 mi West 17.3 mph 27.6 mph N/A   Overcast